Hourly Data Report for September 17, 2020

TORONTO CITY
ONTARIO
Current Station Operator: ECCC - MSC

43°40'00.000" N
79°24'00.000" W
112.50 m
6158355
71508
XTO

Download Data

Hourly Data (September 2020)
Hourly Data Report for September 17, 2020
TIME
LST
Temp Definition
°C
Dew Point Definition
°C
Rel Hum Definition
%
Precip. Amount Definition
mm

Wind Dir Definition
10's deg

Wind Spd Definition
km/h
Visibility Definition
km
Stn Press Definition
kPa
Hmdx Definition


Wind Chill Definition


Weather Definition


00:00 18.1 9.5 57 0.0       100.18     LegendNANA
01:00 17.7 9.7 59 0.0       100.20     LegendNANA
02:00 17.2 9.7 61 0.0       100.24     LegendNANA
03:00 16.5 9.9 65 0.0       100.22     LegendNANA
04:00 15.6 10.1 70 0.0       100.26     LegendNANA
05:00 14.7 10.1 74 0.0       100.28     LegendNANA
06:00 14.4 10.2 76 0.0       100.35     LegendNANA
07:00 14.2 10.2 77 0.0       100.40     LegendNANA
08:00 15.5 10.3 71 0.0       100.47     LegendNANA
09:00 17.0 10.4 65 0.0       100.53     LegendNANA
10:00 18.0 10.4 61 0.0       100.55     LegendNANA
11:00 17.8 9.6 58 0.0       100.59     LegendNANA
12:00 17.2 9.0 59 0.0       100.59     LegendNANA
13:00 18.1 8.6 54 0.0       100.55     LegendNANA
14:00 18.5 7.8 50 0.0       100.52     LegendNANA
15:00 18.8 6.6 45 0.0       100.47     LegendNANA
16:00 18.2 5.7 44 0.0       100.45     LegendNANA
17:00 17.6 3.8 40 0.0       100.46     LegendNANA
18:00 15.8 4.7 48 0.0       100.49     LegendNANA
19:00 13.7 2.7 47 0.0       100.54     LegendNANA
20:00 12.6 0.6 44 0.0       100.60     LegendNANA
21:00 11.8 -0.9 41 0.0       100.62     LegendNANA
22:00 11.5 -0.7 43 0.0       100.64     LegendNANA
23:00 11.8 -0.2 44 0.0       100.65     LegendNANA

Notes on Data Quality.

Legend

  • E = Estimated
  • M = Missing
  • NA = Not Available*
  • [empty] = Indicates an unobserved value
Date modified: